Location: Prague
(50.0830°N, 14.4670°E)
Time: 20:35:12
(UTC+01:00)

HuskySat-1 - Pass Details

Date: 06 December 2021
Orbit: 439 x 453 km, 51.6° (Epoch: 25 January)

Event Time Altitude Azimuth Distance (km) Brightness Sun altitude
Rises 16:49:40 0° 224° (SW) 2,466 ? -7.6°
Reaches altitude 10° 16:51:54 10° 216° (SW) 1,594 ? -7.9°
Maximum altitude 16:55:13 36° 148° (SSE) 743 ? -8.4°
Enters shadow 16:58:21 11° 82° (E) 1,528 ? -8.8°
